User: anonymous
Location: Mentone
(34.5413°N, 85.5351°W)
Time: 13:30:08
(UTC-05:00)
Language:

Tiros 1 despin weight - Orbit

View from above orbital plane
View from above orbital plane
View from above satellite
View from above satellite

Ground track
Ground track

The orbit data is extracted from the following two-line orbital elements,

1 00115U 60002D   14109.89752308  .00004708  00000-0  63122-3 0  3431
2 00115 048.1661 282.1039 0036337 062.7321 052.8340 14.80374601879003
Epoch (UTC): 19 April 2014 21:32:25
Eccentricity: 0.0036337
inclination: 48.1661°
perigee height: 602 km
apogee height: 653 km
right ascension of ascending node: 282.1039°
argument of perigee: 62.7321°
revolutions per day: 14.80374601
mean anomaly at epoch: 52.8340°
orbit number at epoch: 87900

The dashed part of the orbit path shows where the satellite is in the earth's shadow,  

DLR